Location: Beuerbach
(48.1459°N, 10.9174°E)
Time: 01:00:50
(UTC+00:00)

Meteor 1-21 - Pass Details

Date: 10 August 2024
Orbit: 845 x 885 km, 81.2° (Epoch: 09 September)

Event Time Altitude Azimuth Distance (km) Brightness Sun altitude
Rises 02:14:12 0° 332° (NNW) 3,417 7.6 -15.7°
Reaches altitude 10° 02:17:48 10° 309° (NW) 2,478 6.6 -15.3°
Maximum altitude 02:20:34 14° 279° (W) 2,201 6.0 -15.0°
Enters shadow 02:21:43 13° 265° (W) 2,252 6.0 -14.9°
